KellyUSA Airport, TX

5:57 PM CDT on June 27, 2017 (GMT -0500)
Kelly Air Force Base

Weather History for KSKF - August, 2013

Change the Weather History Date:

Saturday, August 17, 2013

  Actual Average Record
Temperature  
Mean Temperature 84 °F -  
Max Temperature 97 °F 94 °F 104 °F (2001)
Min Temperature 73 °F 73 °F 68 °F (2004)
Cooling Degree Days 20    
Growing Degree Days 34 (Base 50)    
Moisture  
Dew Point 63 °F    
Average Humidity 50    
Maximum Humidity 87    
Minimum Humidity 25    
Precipitation  
Precipitation 0.00 in - - ()
Sea Level Pressure  
Sea Level Pressure 29.96 in    
Wind  
Wind Speed 7 mph (ENE)    
Max Wind Speed 17 mph    
Max Gust Speed 21 mph    
Visibility 10 miles    
Events      
Averages and records for this station are not official NWS values.
T = Trace of Precipitation, MM = Missing Value Source: NWS Daily Summary

Daily Weather History Graph

Daily Weather History Graph

Search for Another Location

Airport or City:

Trip Planner

Search our weather history database for the weather conditions in past years. The results will help you decide how hot, cold, wet, or windy it might be!

Date:

Astronomy

Aug. 17, 2013 Rise Set
Actual Time 7:03 AM CDT 8:12 PM CDT
Civil Twilight 6:39 AM CDT 8:37 PM CDT
Nautical Twilight 6:09 AM CDT 9:06 PM CDT
Astronomical Twilight 5:39 AM CDT 9:36 PM CDT
Moon 5:21 PM CDT (8/17) 3:17 AM CDT (8/17)
Length of Visible Light 13h 58m
Length of Day
13h 08m
Waxing Gibbous, 84% of the Moon is Illuminated
Aug 17
Waxing Gibbous
Aug 20
Full
Aug 28
Last Quarter
Sep 5
New
Sep 12
First Quarter

Hourly Weather History & Observations

Time (CDT) Temp. Heat Index Dew Point Humidity Pressure Visibility Wind Dir Wind Speed Gust Speed Precip Events Conditions
12:58 AM 80.6 °F 83.4 °F 68.2 °F 66% 29.98 in 10.0 mi East 8.1 mph - N/A   Clear
1:58 AM 78.6 °F - 70.3 °F 76% 29.98 in 10.0 mi East 5.8 mph - N/A   Clear
2:58 AM 77.4 °F - 70.5 °F 79% 29.97 in 10.0 mi ENE 4.6 mph - N/A   Clear
3:58 AM 76.6 °F - 70.3 °F 81% 29.97 in 10.0 mi ENE 4.6 mph - N/A   Clear
4:58 AM 74.1 °F - 69.1 °F 84% 29.96 in 10.0 mi NNE 4.6 mph - N/A   Clear
5:58 AM 73.0 °F - 68.9 °F 87% 29.97 in 10.0 mi North 3.5 mph - N/A   Scattered Clouds
6:58 AM 73.0 °F - 69.1 °F 87% 29.98 in 10.0 mi NE 5.8 mph - N/A   Partly Cloudy
7:58 AM 75.9 °F - 70.0 °F 82% 30.00 in 10.0 mi NE 6.9 mph - N/A   Clear
8:58 AM 79.2 °F - 70.3 °F 74% 30.01 in 10.0 mi NE 5.8 mph - N/A   Clear
9:58 AM 82.9 °F 87.5 °F 71.1 °F 67% 30.01 in 10.0 mi NE 6.9 mph - N/A   Clear
10:58 AM 86.0 °F 91.1 °F 70.9 °F 60% 30.02 in 10.0 mi Variable 4.6 mph - N/A   Clear
11:58 AM 89.1 °F 93.3 °F 68.9 °F 51% 30.00 in 10.0 mi Variable 4.6 mph - N/A   Clear
12:18 PM 91.4 °F 95.4 °F 68.0 °F 46% 30.02 in 10.0 mi NE 6.9 mph - N/A   Scattered Clouds
12:28 PM 89.6 °F 93.4 °F 68.0 °F 49% 30.02 in 10.0 mi Variable 3.5 mph - N/A   Mostly Cloudy
12:38 PM 89.6 °F 92.2 °F 66.2 °F 46% 30.01 in 10.0 mi Variable 4.6 mph - N/A   Scattered Clouds
12:58 PM 90.3 °F 93.4 °F 66.9 °F 46% 29.98 in 10.0 mi SE 3.5 mph - N/A   Scattered Clouds
1:58 PM 95.2 °F 96.8 °F 63.1 °F 35% 29.96 in 10.0 mi Variable 5.8 mph - N/A   Partly Cloudy
2:58 PM 96.4 °F 96.1 °F 59.7 °F 29% 29.94 in 10.0 mi Variable 2.3 mph 19.6 mph N/A   Partly Cloudy
3:43 PM 96.8 °F 96.2 °F 59.0 °F 28% 29.93 in 10.0 mi NE 13.8 mph 20.7 mph N/A   Partly Cloudy
3:58 PM 96.6 °F 95.6 °F 57.6 °F 27% 29.90 in 10.0 mi NE 8.1 mph - N/A   Clear
4:17 PM 96.8 °F 95.1 °F 55.4 °F 25% 29.92 in 10.0 mi East 17.3 mph 20.7 mph N/A   Partly Cloudy
4:58 PM 96.8 °F 95.8 °F 58.1 °F 27% 29.89 in 10.0 mi Variable 6.9 mph 20.7 mph N/A   Clear
5:55 PM 96.8 °F 95.8 °F 57.2 °F 27% 29.91 in 10.0 mi East 12.7 mph - N/A   Clear
5:58 PM 95.9 °F 94.6 °F 56.5 °F 27% 29.89 in 10.0 mi East 11.5 mph 18.4 mph N/A   Clear
6:58 PM 93.9 °F 92.2 °F 55.8 °F 28% 29.89 in 10.0 mi East 16.1 mph - N/A   Clear
7:58 PM 91.2 °F - 52.5 °F 27% 29.91 in 10.0 mi ENE 12.7 mph - N/A   Clear
8:58 PM 88.7 °F 86.3 °F 53.1 °F 29% 29.92 in 10.0 mi ENE 8.1 mph - N/A   Clear
9:58 PM 86.9 °F 85.1 °F 54.9 °F 33% 29.94 in 10.0 mi NE 8.1 mph - N/A   Clear
10:58 PM 85.8 °F 84.3 °F 55.6 °F 35% 29.96 in 10.0 mi ENE 10.4 mph - N/A   Clear
11:58 PM 84.2 °F 83.0 °F 55.6 °F 37% 29.96 in 10.0 mi ENE 9.2 mph - N/A   Clear